TAP1935 LPPR-LPPT

Flight info

Callsign TAP1935
Flight time N/A
Altitude 37000
Route MANIK DCT ABRIL DCT XAMAX
Aircraft A20N/M-SDE2E3FGHIRWXY/LB1

Departure

Time 2026-05-03 22:55
Airport Francisco de Sá Carneiro Airport (LPPR)

Arrival

Time N/A
Airport Lisbon Humberto Delgado Airport (LPPT)
Time Latitude Longitude Altitude Speed Heading
2026-05-03 22:26 41.23504 -8.67277 245 ft 0 kts 114°
2026-05-03 22:27 41.23505 -8.67283 245 ft 0 kts 114°
2026-05-03 22:44 41.23505 -8.67285 245 ft 1 kts 114°
2026-05-03 22:44 41.23514 -8.67316 244 ft 4 kts 104°
2026-05-03 22:45 41.23520 -8.67351 242 ft 4 kts 99°
2026-05-03 22:45 41.23525 -8.67386 240 ft 4 kts 120°
2026-05-03 22:45 41.23535 -8.67400 239 ft 1 kts 168°
2026-05-03 22:50 41.23534 -8.67400 239 ft 1 kts 168°
2026-05-03 22:50 41.23503 -8.67392 239 ft 8 kts 168°
2026-05-03 22:51 41.23427 -8.67372 239 ft 15 kts 168°
2026-05-03 22:51 41.23344 -8.67387 237 ft 14 kts 232°
2026-05-03 22:51 41.23319 -8.67508 235 ft 0 kts 257°
2026-05-03 22:52 41.23318 -8.67516 236 ft 4 kts 265°
2026-05-03 22:52 41.23310 -8.67580 237 ft 8 kts 258°
2026-05-03 22:52 41.23306 -8.67610 236 ft 0 kts 260°
2026-05-03 22:54 41.23305 -8.67616 235 ft 3 kts 260°
2026-05-03 22:55 41.23298 -8.67667 237 ft 8 kts 259°
2026-05-03 22:55 41.23526 -8.68038 2293 ft 256 kts 313°
2026-05-03 22:55 41.24835 -8.69929 1586 ft 319 kts 313°
2026-05-03 22:55 41.26496 -8.72300 569 ft 373 kts 314°
2026-05-03 22:56 41.28290 -8.74811 888 ft 367 kts 314°
2026-05-03 22:56 41.29955 -8.77129 2547 ft 326 kts 315°
2026-05-03 22:56 41.31454 -8.79201 4358 ft 300 kts 315°
2026-05-03 22:56 41.32910 -8.81174 5457 ft 303 kts 315°
2026-05-03 22:57 41.34451 -8.83222 5671 ft 326 kts 315°
2026-05-03 22:57 41.36111 -8.85402 5412 ft 351 kts 315°
2026-05-03 22:57 41.37899 -8.87715 11337 ft 362 kts 315°
2026-05-03 22:57 41.39714 -8.90032 10787 ft 376 kts 315°
2026-05-03 22:58 41.41647 -8.92491 10067 ft 389 kts 315°
2026-05-03 22:58 41.43614 -8.94999 9614 ft 392 kts 315°
2026-05-03 22:58 41.45575 -8.97507 9605 ft 385 kts 315°
2026-05-03 22:58 41.47469 -8.99936 9836 ft 373 kts 315°
2026-05-03 22:59 41.49322 -9.02317 10007 ft 368 kts 315°
2026-05-03 22:59 41.51165 -9.04689 9925 ft 370 kts 315°
2026-05-03 22:59 41.52998 -9.07128 37268 ft 371 kts 310°
2026-05-03 22:59 41.54482 -9.09960 40449 ft 373 kts 294°
2026-05-03 23:00 41.23504 -8.67277 39604 ft 5 kts 114°